EN

Hourly Weather Bolshoe Kislovo

Today, 9 March, Tuesday

Time Temperature Precipitation Wind Pressure Humidity
00:00 -16°C° 0 mm 2 mps 739 mmHg 95%
01:00 -16°C° 0 mm 2 mps 740 mmHg 96%
02:00 -15°C° 0 mm 1 mps 740 mmHg 96%
03:00 -15°C° 0 mm 1 mps 741 mmHg 97%
04:00 -17°C° 0 mm 2 mps 741 mmHg 97%
05:00 -17°C° 0 mm 2 mps 741 mmHg 97%
06:00 -17°C° 0 mm 2 mps 741 mmHg 95%
07:00 -16°C° 0 mm 2 mps 742 mmHg 93%
08:00 -15°C° 0 mm 2 mps 742 mmHg 91%
09:00 -14°C° 0 mm 2 mps 743 mmHg 87%
10:00 -13°C° 0 mm 2 mps 743 mmHg 83%
11:00 -12°C° 0 mm 2 mps 743 mmHg 79%
12:00 -10°C° 0 mm 2 mps 743 mmHg 77%
13:00 -10°C° 0 mm 2 mps 744 mmHg 75%
14:00 -9°C° 0 mm 2 mps 744 mmHg 73%
15:00 -10°C° 0 mm 2 mps 744 mmHg 76%
16:00 -10°C° 0 mm 2 mps 744 mmHg 80%
17:00 -10°C° 0 mm 1 mps 744 mmHg 84%
18:00 -11°C° 0 mm 1 mps 744 mmHg 85%
19:00 -11°C° 0 mm 1 mps 745 mmHg 87%
20:00 -12°C° 0 mm 1 mps 745 mmHg 89%
21:00 -12°C° 0 mm 1 mps 745 mmHg 89%
22:00 -13°C° 0 mm 1 mps 745 mmHg 89%
23:00 -13°C° 0 mm 1 mps 745 mmHg 90%

Tomorrow, 10 March, Wednesday

Time Temperature Precipitation Wind Pressure Humidity
00:00 -15°C° 0.2 mm 2 mps 746 mmHg 91%
01:00 -15°C° 0.2 mm 2 mps 746 mmHg 92%
02:00 -15°C° 0.2 mm 2 mps 746 mmHg 93%
03:00 -15°C° 0.3 mm 2 mps 746 mmHg 93%
04:00 -16°C° 0.3 mm 3 mps 746 mmHg 93%
05:00 -17°C° 0.3 mm 3 mps 746 mmHg 94%
06:00 -17°C° 0.1 mm 3 mps 746 mmHg 93%
07:00 -17°C° 0.1 mm 3 mps 747 mmHg 92%
08:00 -19°C° 0.1 mm 4 mps 747 mmHg 91%
09:00 -18°C° 0 mm 4 mps 747 mmHg 87%
10:00 -17°C° 0 mm 4 mps 748 mmHg 83%
11:00 -16°C° 0 mm 4 mps 748 mmHg 79%
12:00 -16°C° 0 mm 4 mps 748 mmHg 76%
13:00 -14°C° 0 mm 3 mps 748 mmHg 73%
14:00 -13°C° 0 mm 3 mps 749 mmHg 70%
15:00 -14°C° 0 mm 3 mps 749 mmHg 73%
16:00 -15°C° 0 mm 3 mps 749 mmHg 76%
17:00 -16°C° 0 mm 3 mps 749 mmHg 79%
18:00 -17°C° 0 mm 3 mps 749 mmHg 82%
19:00 -19°C° 0 mm 3 mps 750 mmHg 85%
20:00 -21°C° 0 mm 3 mps 750 mmHg 88%
21:00 -22°C° 0 mm 3 mps 750 mmHg 89%
22:00 -22°C° 0 mm 3 mps 750 mmHg 89%
23:00 -23°C° 0 mm 3 mps 751 mmHg 89%

Day after tomorrow, 11 March, Thursday

Time Temperature Precipitation Wind Pressure Humidity
00:00 -23°C° 0 mm 3 mps 751 mmHg 89%
01:00 -23°C° 0 mm 3 mps 751 mmHg 90%
02:00 -23°C° 0 mm 3 mps 751 mmHg 90%
03:00 -23°C° 0 mm 3 mps 751 mmHg 90%
04:00 -23°C° 0 mm 3 mps 751 mmHg 90%
05:00 -23°C° 0 mm 3 mps 750 mmHg 90%
06:00 -23°C° 0 mm 3 mps 750 mmHg 88%
07:00 -22°C° 0 mm 3 mps 750 mmHg 87%
08:00 -21°C° 0 mm 3 mps 751 mmHg 85%
09:00 -18°C° 0 mm 3 mps 750 mmHg 83%
10:00 -16°C° 0 mm 3 mps 750 mmHg 80%
11:00 -15°C° 0 mm 3 mps 750 mmHg 78%
12:00 -13°C° 0 mm 3 mps 750 mmHg 78%
13:00 -12°C° 0 mm 3 mps 750 mmHg 79%
14:00 -10°C° 0 mm 4 mps 749 mmHg 79%
15:00 -10°C° 0 mm 3 mps 749 mmHg 82%
16:00 -10°C° 0 mm 3 mps 749 mmHg 85%
17:00 -12°C° 0 mm 3 mps 748 mmHg 88%
18:00 -14°C° 0 mm 4 mps 748 mmHg 90%
19:00 -14°C° 0 mm 4 mps 748 mmHg 92%
20:00 -15°C° 0 mm 4 mps 748 mmHg 94%
21:00 -16°C° 0 mm 4 mps 748 mmHg 94%
22:00 -16°C° 0 mm 4 mps 747 mmHg 95%
23:00 -16°C° 0 mm 4 mps 747 mmHg 95%

12 March, Friday

Time Temperature Precipitation Wind Pressure Humidity
00:00 -16°C° 0 mm 4 mps 747 mmHg 95%
01:00 -16°C° 0 mm 4 mps 746 mmHg 95%
02:00 -16°C° 0 mm 4 mps 746 mmHg 95%
03:00 -16°C° 0 mm 4 mps 745 mmHg 94%
04:00 -17°C° 0 mm 5 mps 745 mmHg 93%
05:00 -17°C° 0 mm 5 mps 744 mmHg 92%
06:00 -17°C° 0 mm 5 mps 744 mmHg 89%
07:00 -16°C° 0 mm 6 mps 743 mmHg 85%
08:00 -15°C° 0 mm 6 mps 743 mmHg 81%
09:00 -14°C° 0 mm 6 mps 743 mmHg 78%
10:00 -11°C° 0 mm 6 mps 742 mmHg 75%
11:00 -11°C° 0 mm 7 mps 742 mmHg 72%
12:00 -9°C° 0 mm 7 mps 741 mmHg 72%
13:00 -8°C° 0 mm 7 mps 741 mmHg 73%
14:00 -7°C° 0 mm 7 mps 741 mmHg 73%
15:00 -8°C° 0.1 mm 7 mps 740 mmHg 78%
16:00 -8°C° 0.1 mm 7 mps 740 mmHg 83%
17:00 -9°C° 0.1 mm 7 mps 739 mmHg 88%
18:00 -9°C° 0.4 mm 7 mps 739 mmHg 89%
19:00 -9°C° 0.4 mm 7 mps 738 mmHg 90%
20:00 -9°C° 0.4 mm 7 mps 738 mmHg 91%
21:00 -9°C° 0.4 mm 7 mps 738 mmHg 91%
22:00 -11°C° 0.4 mm 7 mps 737 mmHg 92%
23:00 -10°C° 0.4 mm 6 mps 737 mmHg 92%

13 March, Saturday

Time Temperature Precipitation Wind Pressure Humidity
00:00 -10°C° 0.3 mm 6 mps 737 mmHg 92%
01:00 -8°C° 0.3 mm 5 mps 736 mmHg 93%
02:00 -8°C° 0.3 mm 5 mps 736 mmHg 93%
03:00 -8°C° 0.3 mm 4 mps 736 mmHg 94%
04:00 -7°C° 0.3 mm 4 mps 736 mmHg 95%
05:00 -6°C° 0.3 mm 3 mps 736 mmHg 95%
06:00 -5°C° 0.1 mm 3 mps 736 mmHg 95%
07:00 -4°C° 0.1 mm 4 mps 737 mmHg 95%
08:00 -3°C° 0.1 mm 4 mps 737 mmHg 95%
09:00 -2°C° 0 mm 4 mps 737 mmHg 94%
10:00 -1°C° 0 mm 5 mps 737 mmHg 93%
11:00 -1°C° 0 mm 5 mps 737 mmHg 92%
12:00 -1°C° 0 mm 5 mps 737 mmHg 92%
13:00 0°C° 0 mm 5 mps 737 mmHg 92%
14:00 0°C° 0 mm 5 mps 737 mmHg 92%
15:00 0°C° 0 mm 5 mps 737 mmHg 92%
16:00 -1°C° 0 mm 5 mps 737 mmHg 92%
17:00 -1°C° 0 mm 5 mps 736 mmHg 93%
18:00 -1°C° 0 mm 5 mps 736 mmHg 93%
19:00 -1°C° 0 mm 5 mps 736 mmHg 93%
20:00 -1°C° 0 mm 5 mps 736 mmHg 93%
21:00 -1°C° 0 mm 5 mps 736 mmHg 93%
22:00 -1°C° 0 mm 5 mps 735 mmHg 93%
23:00 -1°C° 0 mm 5 mps 735 mmHg 93%

14 March, Sunday

Time Temperature Precipitation Wind Pressure Humidity
00:00 -1°C° 0.7 mm 5 mps 735 mmHg 95%
01:00 -1°C° 0.7 mm 4 mps 735 mmHg 96%
02:00 -1°C° 0.7 mm 4 mps 734 mmHg 97%
03:00 -2°C° 0.2 mm 4 mps 734 mmHg 97%
04:00 -1°C° 0.2 mm 3 mps 734 mmHg 97%
05:00 -1°C° 0.2 mm 3 mps 734 mmHg 96%
06:00 -1°C° 0 mm 3 mps 734 mmHg 95%
07:00 -2°C° 0 mm 4 mps 734 mmHg 94%
08:00 -1°C° 0 mm 4 mps 734 mmHg 93%
09:00 -1°C° 0 mm 4 mps 734 mmHg 94%
10:00 -1°C° 0 mm 5 mps 734 mmHg 94%
11:00 0°C° 0 mm 5 mps 734 mmHg 95%
12:00 0°C° 0 mm 5 mps 734 mmHg 95%
13:00 0°C° 0 mm 4 mps 734 mmHg 96%
14:00 0°C° 0 mm 4 mps 734 mmHg 96%
15:00 0°C° 0.1 mm 4 mps 734 mmHg 96%
16:00 0°C° 0.1 mm 4 mps 734 mmHg 96%
17:00 0°C° 0.1 mm 4 mps 733 mmHg 96%
18:00 0°C° 0.3 mm 4 mps 733 mmHg 96%
19:00 0°C° 0.3 mm 4 mps 733 mmHg 96%
20:00 0°C° 0.3 mm 4 mps 733 mmHg 96%
21:00 0°C° 0.3 mm 5 mps 734 mmHg 96%
22:00 0°C° 0.3 mm 5 mps 734 mmHg 96%
23:00 0°C° 0.3 mm 5 mps 734 mmHg 96%
Show more